Location: Chimay
(50.0486°N, 4.3171°E)
Time: 00:12:32
(UTC+00:00)

Iridium 4 Rocket - Pass Details

Date: 08 August 2020
Orbit: 586 x 903 km, 86.9° (Epoch: 23 September)

Event Time Altitude Azimuth Distance (km) Brightness Sun altitude
Exits shadow 22:21:43 55° 199° (SSW) 756 3.2 -21.4°
Maximum altitude 22:22:38 79° 273° (W) 635 3.0 -21.5°
Drops below altitude 10° 22:26:54 10° 1° (N) 1,946 6.6 -21.8°
Sets 22:29:03 0° 3° (N) 2,838 7.6 -21.9°
